Left ArrowRight Arrow

39.01783, -85.05884

Hourly Observations for June 21, 2024

Temp ( °F °C ) Dew Point ( °F °C ) Humidity (%) Winds ( mph kmh ) Pressure ( in mb ) Visibility ( mi km ) Precip ( " mm )
12:52 am 00:52 Mostly Clear 77 25 68 20 74 74 W 5 7 30.22 1023 10 16 0.00 0.00
1:52 am 01:52 Clear 75 23.9 68 20 79 79 W 5 7 30.22 1023 10 16 0.00 0.00
2:52 am 02:52 Clear 75 23.9 68 20 79 79 Calm 30.20 1023 10 16 0.00 0.00
3:52 am 03:52 Clear 73 22.8 68 20 84 84 Calm 30.20 1023 10 16 0.00 0.00
4:52 am 04:52 Clear 73 22.8 67 19.4 81 81 WNW 3 6 30.20 1023 10 16 0.00 0.00
5:52 am 05:52 Mostly Clear 71 21.7 67 19.4 87 87 Calm 30.21 1023 10 16 0.00 0.00
6:52 am 06:52 Partly Cloudy 71 21.7 66 18.9 84 84 Calm 30.22 1023 8 13 0.00 0.00
7:52 am 07:52 Partly Cloudy 79 26.1 68 20 69 69 Calm 30.23 1024 9 14 0.00 0.00
8:52 am 08:52 Mostly Cloudy 83 28.3 69 20.6 63 63 NW 3 6 30.23 1024 10 16 0.00 0.00
9:52 am 09:52 Mostly Cloudy 82 27.8 68 20 63 63 WNW 6 9 30.23 1024 10 16 0.00 0.00
10:52 am 10:52 Mostly Sunny 87 30.6 67 19.4 51 51 NNW 6 9 30.22 1023 10 16 0.00 0.00
11:52 am 11:52 Mostly Sunny 89 31.7 64 17.8 44 44 WSW 6 9 30.21 1023 10 16 0.00 0.00
12:52 pm 12:52 Mostly Sunny 91 32.8 68 20 47 47 NW 7 11 30.20 1023 10 16 0.00 0.00
1:52 pm 13:52 Partly Cloudy 91 32.8 66 18.9 44 44 W 10 17 30.19 1022 10 16 0.00 0.00
2:52 pm 14:52 Mostly Sunny 94 34.4 65 18.3 39 39 W 5 7 30.16 1021 10 16 0.00 0.00
3:52 pm 15:52 Mostly Sunny 92 33.3 64 17.8 40 40 W 6 9 30.14 1021 10 16 0.00 0.00
4:52 pm 16:52 Mostly Sunny 92 33.3 64 17.8 40 40 WNW 7 11 30.12 1020 10 16 0.00 0.00
5:52 pm 17:52 Mostly Sunny 92 33.3 65 18.3 41 41 WSW 8 13 30.10 1019 10 16 0.00 0.00
6:52 pm 18:52 Mostly Sunny 91 32.8 65 18.3 42 42 WSW 7 11 30.09 1019 10 16 0.00 0.00
7:52 pm 19:52 Mostly Sunny 89 31.7 65 18.3 45 45 WSW 5 7 30.09 1019 10 16 0.00 0.00
8:52 pm 20:52 Sunny 85 29.4 66 18.9 53 53 W 5 7 30.09 1019 10 16 0.00 0.00
9:52 pm 21:52 Clear 84 28.9 69 20.6 61 61 W 3 6 30.09 1019 10 16 0.00 0.00
10:52 pm 22:52 Clear 80 26.7 66 18.9 62 62 WSW 5 7 30.09 1019 10 16 0.00 0.00
11:52 pm 23:52 Clear 76 24.4 67 19.4 74 74 Calm 30.09 1019 10 16 0.00 0.00

Powered by Vaisala Xweather